TimeMST,TemperatureF,Dew PointF,Humidity,Sea Level PressureIn,VisibilityMPH,Wind Direction,Wind SpeedMPH,Gust SpeedMPH,PrecipitationIn,Events,Conditions,WindDirDegrees,DateUTC
12:58 AM,56.8,15.4,20,29.86,10.0,ESE,8.1,-,N/A,,Clear,120,2014-03-22 07:58:00
1:58 AM,52.9,17.4,25,29.87,10.0,SSE,5.8,-,N/A,,Clear,150,2014-03-22 08:58:00
2:58 AM,52.0,19.2,28,29.86,10.0,SE,5.8,-,N/A,,Clear,140,2014-03-22 09:58:00
3:58 AM,51.1,19.2,29,29.94,10.0,SSE,8.1,-,N/A,,Clear,160,2014-03-22 10:58:00
4:58 AM,49.5,19.4,31,29.87,10.0,SE,8.1,-,N/A,,Clear,130,2014-03-22 11:58:00
5:58 AM,49.1,19.9,32,29.88,10.0,ESE,9.2,-,N/A,,Clear,120,2014-03-22 12:58:00
6:58 AM,49.5,21.0,33,29.91,10.0,ESE,8.1,-,N/A,,Clear,120,2014-03-22 13:58:00
7:58 AM,61.3,21.7,22,29.91,10.0,SE,6.9,-,N/A,,Clear,130,2014-03-22 14:58:00
8:58 AM,66.9,21.2,18,29.93,10.0,SE,4.6,-,N/A,,Clear,140,2014-03-22 15:58:00
9:58 AM,71.1,18.1,13,29.93,10.0,South,8.1,-,N/A,,Clear,170,2014-03-22 16:58:00
10:58 AM,72.1,17.2,12,29.93,10.0,SW,5.8,-,N/A,,Clear,230,2014-03-22 17:58:00
11:58 AM,72.3,19.2,13,29.91,10.0,Variable,5.8,-,N/A,,Clear,0,2014-03-22 18:58:00
12:58 PM,75.7,19.8,12,29.88,10.0,North,8.1,-,N/A,,Clear,10,2014-03-22 19:58:00
1:58 PM,76.6,18.9,11,29.87,10.0,Variable,6.9,-,N/A,,Clear,0,2014-03-22 20:58:00
2:58 PM,79.9,18.5,10,29.84,10.0,West,12.7,18.4,N/A,,Clear,270,2014-03-22 21:58:00
3:08 PM,80.6,15.8,9,29.93,10.0,SW,16.1,18.4,N/A,,Clear,230,2014-03-22 22:08:00
3:58 PM,79.3,18.7,10,29.83,10.0,NW,13.8,18.4,N/A,,Clear,310,2014-03-22 22:58:00
4:58 PM,79.0,18.0,10,29.84,10.0,NW,8.1,-,N/A,,Clear,310,2014-03-22 23:58:00
5:46 PM,77.0,19.4,12,29.93,10.0,NNW,15.0,-,N/A,,Clear,340,2014-03-23 00:46:00
5:58 PM,76.5,18.7,11,29.86,10.0,NW,12.7,-,N/A,,Clear,320,2014-03-23 00:58:00
6:58 PM,72.0,18.9,13,29.88,10.0,NNW,8.1,-,N/A,,Clear,330,2014-03-23 01:58:00
7:58 PM,68.9,21.4,17,29.89,10.0,WNW,4.6,-,N/A,,Clear,290,2014-03-23 02:58:00
8:58 PM,65.7,21.9,19,29.91,10.0,West,5.8,-,N/A,,Clear,260,2014-03-23 03:58:00
9:58 PM,61.0,22.1,22,29.94,10.0,SW,5.8,-,N/A,,Clear,230,2014-03-23 04:58:00
10:58 PM,57.9,21.6,25,29.95,10.0,South,6.9,-,N/A,,Clear,190,2014-03-23 05:58:00
11:58 PM,57.6,22.3,26,29.96,10.0,SSE,6.9,-,N/A,,Clear,160,2014-03-23 06:58:00